Regional Weather Roundup
Issued by NWS

Home | Current Version | Previous Version | Text Only | Print | Product List | Glossary On
Versions: 1 2 3 4 5 6 7 8 9 10 11 12 13 14 15 16 17 18 19 20 21 22 23 24 25 26 27 28 29 30 31 32 33 34 35 36 37 38 39 40 41 42 43 44 45 46 47 48 49 50
000
ASUS43 KBIS 270601
RWRND

NORTH DAKOTA REGIONAL WEATHER ROUNDUP
NATIONAL WEATHER SERVICE BISMARCK ND
100 AM CDT MON APR 27 2015

NOTE: "FAIR" INDICATES FEW OR NO CLOUDS BELOW 12,000 FEET WITH NO
SIGNIFICANT WEATHER AND/OR OBSTRUCTIONS TO VISIBILITY.


NDZ001>003-009>011-017-270700-
NORTHWEST NORTH DAKOTA

CITY           SKY/WX    TMP DP  RH WIND       PRES   REMARKS
WILLISTON      LGT RAIN  44  37  76 N9        30.22R
6HR MIN TEMP:  43; 6HR MAX TEMP:  54; 6HR PCP:  0.01;

MINOT          CLOUDY    47  44  90 W7        30.18R
MINOT AFB      DRIZZLE   47  47 100 N8        30.17S
$$

NDZ018>021-031>035-040>046-270700-
SOUTHWEST NORTH DAKOTA

CITY           SKY/WX    TMP DP  RH WIND       PRES   REMARKS
BISMARCK       MOCLDY    46  46 100 NE3       30.18S FOG
6HR MIN TEMP:  44; 6HR MAX TEMP:  56;

DICKINSON      LGT RAIN  43  42  97 N3        30.17R FOG
GARRISON         N/A     45  43  93 NW5       30.17S
6HR MIN TEMP:  44; 6HR MAX TEMP:  49;

HETTINGER ARPT LGT RAIN  43  41  93 N6        30.19S FOG
$$

NDZ004>008-012>016-024-026-027-054-270700-
NORTHEAST NORTH DAKOTA

CITY           SKY/WX    TMP DP  RH WIND       PRES   REMARKS
GRAND FORKS    CLEAR     45  28  51 W6        30.16R
GRND FRKS AFB  CLEAR     40  28  62 NW2       30.16R
DEVILS LAKE    PTCLDY    43  39  87 CALM      30.16S
$$

NDZ022-023-025-028>030-036>039-047>053-270700-
SOUTHEAST NORTH DAKOTA

CITY           SKY/WX    TMP DP  RH WIND       PRES   REMARKS
FARGO          CLEAR     44  27  51 SE3       30.16R
6HR MIN TEMP:  42; 6HR MAX TEMP:  66;

JAMESTOWN      CLEAR     41  29  62 N7        30.16R
$$



USA.gov is the U.S. government's official web portal to all federal, state and local government web resources and services.